#timestamp,LO_Frequency,Hit,StdDev 
1635760815.6,286047002.4,N
1635760835.4,286047002.0,N
1635760855.3,286047002.7,N
1635760875.1,286047000.1,N
1635760895.8,286047000.9,N
1635760915.7,286047000.7,N
1635760935.5,286046998.1,N
1635760955.4,286047000.7,N
1635760975.2,286047000.7,N
1635760995.0,286047000.9,N
1635760995.9,286047000.9,N
1635761015.8,286047000.8,N
1635761035.6,286046998.5,N
1635761055.5,286046998.7,N
1635761075.3,286046998.6,N
1635761095.1,286047001.2,N
1635761115.9,286046998.2,N
1635761135.7,286046998.6,N
1635761155.6,286047000.7,N
1635761175.4,286046998.7,N
1635761195.3,286046998.6,N
1635761215.1,286046998.2,N
1635761216.0,286046998.2,N
1635761235.8,286046998.2,N
1635761255.7,286047000.6,N
1635761275.5,286047000.0,N
1635761295.3,286047002.8,N
1635761315.2,286047000.1,N
1635761335.0,286047002.7,N
1635761335.9,286047002.7,N
1635761355.8,286047002.7,N
1635761375.6,286047000.2,N
1635761395.4,286047000.1,N
1635761415.3,286047002.8,N
1635761435.1,286047002.4,N
1635761455.9,286047000.2,N
1635761475.7,286046999.7,N
1635761495.5,286047000.5,N
1635761515.4,286047002.3,N
1635761535.2,286047000.2,N
1635761555.0,286047000.1,N
1635761555.9,286047000.1,N
1635761575.8,286047002.1,N
1635761595.6,286047002.5,N
1635761615.5,286047002.6,N
1635761635.3,286047002.3,N
1635761655.1,286047000.4,N
1635761675.9,286047002.6,N
1635761695.7,286047002.8,N
1635761715.5,286047000.5,N
1635761735.4,286047002.7,N
1635761755.2,286047002.0,N
1635761775.1,286047002.5,N
1635761776.0,286047002.5,N
1635761795.8,286047001.4,N
1635761815.6,286047001.8,N
1635761835.5,286047001.6,N
1635761855.3,286046999.8,N
1635761875.1,286047001.9,N
1635761895.9,286047004.1,Y
1635761915.7,286046999.7,P
1635761935.6,286047001.2,N
1635761955.4,286047001.2,N
1635761975.2,286047000.5,N
1635761995.1,286047000.3,N
1635761996.0,286047000.3,N
1635762015.8,286047000.0,N
1635762035.7,286047001.0,N
1635762055.5,286047001.0,N
1635762075.3,286047000.3,N
1635762095.2,286047000.5,N
1635762115.1,286047000.1,N
1635762116.0,286047000.1,N
1635762135.8,286047000.6,N
1635762155.7,286046998.5,Y
1635762175.5,286046998.5,P
1635762195.3,286047000.6,N
1635762215.2,286047000.2,N
1635762235.0,286047000.3,N
1635762235.9,286047000.3,N
1635762255.8,286047000.3,N
1635762275.6,286047002.7,Y
1635762295.4,286047002.2,P
1635762315.3,286047002.0,N
1635762335.1,286047002.2,N
1635762355.9,286047002.8,Y
1635762375.7,286047000.5,P
1635762395.5,286046999.8,N
1635762415.4,286047000.8,N
1635762435.2,286046998.1,N
1635762455.0,286046998.1,N
1635762456.0,286046998.1,N
1635762475.8,286046998.2,N
1635762495.6,286047000.7,N
1635762515.5,286047000.2,N
1635762535.3,286047000.9,N
1635762555.1,286046998.2,N
1635762575.9,286047001.2,N
1635762595.7,286047000.3,N
1635762615.6,286046998.2,N
1635762635.4,286047000.5,N
1635762655.2,286047000.4,N
1635762675.1,286046998.2,N
1635762676.0,286046998.2,N
1635762695.8,286046998.2,N
1635762715.6,286046998.4,N
1635762735.5,286046997.2,N
1635762755.3,286046997.2,N
1635762775.2,286046997.6,N
1635762795.9,286046997.7,N
1635762815.7,286046997.6,N
1635762835.6,286046999.6,N
1635762855.4,286046999.6,N
1635762875.3,286046998.5,N
1635762895.1,286046998.7,N
1635762896.0,286046998.7,N
1635762915.8,286046999.3,N
1635762935.7,286046999.1,N
1635762955.5,286046998.9,N
1635762975.3,286046999.3,N
1635762995.2,286046998.7,N
1635763015.0,286046998.6,N
1635763015.9,286046998.6,N
1635763035.8,286046998.6,N
1635763055.6,286046998.3,N
1635763075.5,286046998.8,N
1635763095.3,286047000.7,N
1635763115.1,286046998.4,N
1635763135.9,286046999.3,N
1635763155.7,286046999.4,N
1635763175.6,286046999.2,N
1635763195.4,286046996.9,Y
1635763215.2,286047000.8,P
1635763235.1,286047000.8,N
1635763236.0,286047000.8,N
1635763255.8,286046999.7,N
1635763275.7,286046998.2,N
1635763295.5,286046998.2,N
1635763315.3,286047001.2,N
1635763335.2,286047000.6,N
1635763355.0,286047000.8,N
1635763355.9,286047000.8,N
1635763375.8,286046999.8,N
1635763395.6,286047000.1,N
1635763415.4,286047002.6,N
1635763435.3,286046999.8,N
1635763455.1,286047002.7,N
1635763475.8,286047002.2,N
1635763495.7,286047001.4,N
1635763515.5,286047002.5,N
1635763535.4,286047000.1,N
1635763555.2,286047001.5,N
1635763575.0,286047004.4,Y
1635763575.9,286047004.4,P
1635763595.8,286047000.0,N
1635763615.6,286047000.2,N
1635763635.4,286046999.8,N
1635763655.3,286047000.1,N
1635763675.1,286047001.6,N
1635763695.9,286047002.3,N
1635763715.7,286047001.9,N
1635763735.5,286047002.4,N
1635763755.4,286047002.5,N
1635763775.2,286047000.3,N
1635763795.0,286047001.0,N
1635763795.9,286047001.0,N
1635763815.8,286046999.9,N
1635763835.6,286047000.1,N
1635763855.5,286047001.9,N
1635763875.3,286047001.6,N
1635763895.1,286047002.1,N
1635763915.9,286047001.8,N
1635763935.7,286047001.6,N
1635763955.6,286047001.4,N
1635763975.4,286047001.3,N
1635763995.2,286047001.4,N
1635764015.1,286047004.2,Y
1635764016.0,286047004.2,P
1635764035.8,286047004.1,N
1635764055.6,286047002.9,N
1635764075.5,286047003.5,N
1635764095.3,286047003.4,Y
1635764115.2,286047000.9,P
1635764135.9,286047001.2,N
1635764155.7,286046998.9,N
1635764175.6,286046997.0,N
1635764195.4,286046998.3,N
1635764215.2,286046999.1,N
1635764235.1,286046998.3,N
1635764236.0,286046998.3,N
1635764255.8,286046997.0,N
1635764275.7,286046998.7,N
1635764295.5,286046996.7,N
1635764315.3,286046999.6,N
1635764335.2,286046999.4,N
1635764355.0,286046999.0,N
1635764355.9,286046999.0,N
1635764375.8,286046996.5,N
1635764395.6,286046999.5,N
